Weather observations for the past three days for
Idaho Falls Regional Airport
Imperial (Metric)
Date Time (mdt) Wind (mph) Vis. (mi.) Weather Sky Cond. Temperature (ºF) Relative Humidity Wind Chill (°F) Heat Index (°F) Pressure Precipitation (in)
Air Dwpt 6 hour altimeter (in) sea level (mb) 1 hr 3 hr 6 hr
Max. Min.
20 03:53 N 5 10.00 Fair CLR 61 55 81% 30.22 1018.1
20 02:53 NW 5 10.00 Fair CLR 59 54 83% 30.22 1018.3
20 01:53 NE 3 10.00 Fair CLR 64 54 70% 30.21 1017.9
20 00:53 Calm 10.00 Fair CLR 63 54 73% 30.2 1017.9
19 23:53 Calm 10.00 Fair CLR 68 54 91 63 61% 30.2 1018.0
19 22:53 Calm 10.00 Fair CLR 68 54 61% 30.2 1018.2
19 21:53 N 3 10.00 Fair CLR 70 55.9 61% 30.2 1018.3
19 20:53 SW 3 10.00 Fair CLR 79 53.1 41% 79 30.18 1017.1
19 19:53 W 7 10.00 Fair CLR 82 59 46% 82 30.17 1017.0
19 18:53 W 8 10.00 Fair CLR 78.1 60.1 54% 79 30.17 1017.7
19 17:53 Calm 10.00 Fair CLR 88 59 95 79 38% 87 30.17 1016.7
19 16:53 W 3 10.00 Fair CLR 93 46.9 21% 89 30.17 1016.3
19 15:53 N 3 10.00 Fair CLR 93.9 48.9 21% 91 30.19 1016.6
19 14:53 NW 5 10.00 Fair CLR 90 57 33% 89 30.21 1017.1
19 13:53 Vrbl 5 10.00 Fair CLR 90 50 25% 87 30.23 1017.7
19 12:53 N 7 10.00 Fair CLR 82.9 60.1 46% 83 30.24 1018.6
19 11:53 NW 6 10.00 Fair CLR 79 59 79 54 50% 80 30.25 1019.7
19 10:53 NW 6 10.00 Fair CLR 75.9 57 52% 78 30.26 1019.6
19 09:53 NW 6 10.00 Fair CLR 70 57 64% 30.26 1020.0
19 08:53 N 3 10.00 Fair CLR 66 55 68% 30.26 1019.9
19 07:53 NW 3 10.00 Fair CLR 62.1 53.1 73% 30.24 1019.2
19 06:53 N 3 10.00 Fair CLR 57.9 50 75% 30.23 1018.5
19 05:53 Calm 10.00 Fair CLR 62.1 48 77 55.9 60% 30.21 1017.4
19 04:53 SW 7 10.00 Fair CLR 63 46.9 56% 30.18 1016.2
19 03:53 SW 8 10.00 Fair CLR 66 46 49% 30.17 1016.0
19 02:53 S 10 10.00 Fair CLR 75 46 36% 77 30.17 1015.2
19 01:53 SE 8 10.00 Fair CLR 75.9 48.9 39% 78 30.17 1015.6
19 00:53 SW 5 10.00 Fair CLR 73 50 44% 30.18 1016.2
18 23:53 W 3 10.00 Fair CLR 68 55 97 68 63% 30.17 1016.4
18 22:53 S 8 10.00 Fair CLR 75.9 48.9 39% 78 30.16 1016.1
18 21:53 SW 8 10.00 Fair CLR 77 50 39% 78 30.15 1015.9
18 20:53 W 3 10.00 Fair CLR 80.1 53.1 39% 80 30.13 1015.6
18 19:53 SW 17 10.00 Fair CLR 86 48.9 28% 83 30.11 1014.8
18 18:53 SW 20 10.00 Fair CLR 93.9 46 19% 90 30.07 1013.2
18 17:53 S 13 10.00 Fair CLR 96.1 45 98.1 82.9 17% 92 30.1 1014.0
18 16:53 S 17 G 25 10.00 Fair CLR 97 46 17% 93 30.1 1014.0
18 15:53 S 13 G 22 10.00 Fair CLR 96.1 45 17% 92 30.12 1014.5
18 14:53 S 8 10.00 Fair CLR 93.9 46.9 20% 90 30.15 1015.5
18 13:53 S 8 10.00 Fair CLR 91.9 46.9 21% 88 30.18 1016.8
18 12:53 SW 9 10.00 Fair CLR 89.1 54 30% 87 30.19 1017.5
18 11:53 W 5 10.00 Fair CLR 82.9 57.9 82.9 54 43% 83 30.21 1017.9
18 10:53 N 5 10.00 Fair CLR 78.1 55.9 47% 79 30.22 1018.3
18 09:53 NW 6 10.00 Fair CLR 73 57 57% 30.22 1018.5
18 08:53 NW 3 10.00 Fair CLR 66 55.9 70% 30.23 1018.8
18 07:53 N 6 10.00 Fair CLR 59 53.1 81% 30.22 1019.1
18 06:53 N 5 10.00 Fair CLR 55.9 48.9 77% 30.21 1019.0
18 05:53 N 5 10.00 Fair CLR 55.9 48.9 69.1 55 77% 30.21 1018.1
18 04:53 N 6 10.00 Fair CLR 55.9 50 81% 30.19 1017.4
18 03:53 NE 6 10.00 Fair CLR 59 51.1 75% 30.17 1016.5
18 02:53 N 5 10.00 Fair CLR 61 51.1 70% 30.18 1017.0
18 01:53 N 5 10.00 Fair CLR 60.1 52 75% 30.19 1017.2
18 00:53 N 3 10.00 Fair CLR 60.1 54 80% 30.2 1017.7
17 23:53 NE 5 10.00 Fair CLR 69.1 52 89.1 64.9 55% 30.2 1017.5
17 22:53 NE 8 10.00 Fair CLR 73 51.1 46% 30.21 1017.5
17 21:53 NE 10 10.00 Fair CLR 75.9 50 40% 78 30.22 1018.1
17 20:53 SE 10 10.00 Fair CLR 81 46.9 30% 80 30.18 1017.0
17 19:53 SW 12 10.00 Fair CLR 78.1 48.9 36% 79 30.17 1017.1
17 18:53 SW 8 10.00 Fair CLR 80.1 53.1 39% 80 30.16 1017.1
17 17:53 SW 29 G 38 9.00 Fair and Windy CLR 89.1 48.9 95 82.9 25% 86 30.14 1015.8
17 16:53 N 5 10.00 Fair CLR 93 51.1 24% 90 30.12 1015.0
17 15:53 NW 3 10.00 Fair CLR 93 44.1 18% 89 30.13 1014.6
17 14:53 W 6 10.00 Fair CLR 91 59 34% 90 30.15 1015.9
17 13:53 Vrbl 6 10.00 Fair CLR 89.1 57.9 35% 88 30.18 1016.7
17 12:53 W 6 10.00 Fair CLR 87.1 57 36% 86 30.2 1017.5
17 11:53 NW 6 10.00 Fair CLR 84 57.9 84 54 41% 83 30.21 1017.2
17 10:53 NE 8 10.00 Fair CLR 82 52 35% 81 30.21 1017.3
17 09:53 N 8 10.00 Fair CLR 75.9 53.1 45% 78 30.22 1017.9
17 08:53 N 8 10.00 Fair CLR 70 53.1 55% 30.22 1018.5
17 07:53 N 7 9.00 Fair CLR 63 52 68% 30.22 1018.4
17 06:53 N 8 10.00 Fair CLR 55.9 50 81% 30.21 1018.2
17 05:53 Calm 10.00 Fair CLR 55.9 50 77 55.9 81% 30.19 1017.6
17 04:53 N 5 10.00 Fair CLR 57 50 78% 30.18 1017.6
Date Time (mdt) Wind (mph) Vis. (mi.) Weather Sky Cond. Air Dwpt Max. Min. Relative Humidity Wind Chill (°F) Heat Index (°F) altimeter (in) sea level (mb) 1 hr 3 hr 6 hr
6 hour
Temperature (ºF) Pressure Precipitation (in)